When you browse on this site, cookies collect data to enhance your experience and personalize the content and advertising you see.
Visit our Privacy Policy to learn more. By continuing to use the site, you agree to this use of cookies and data.
  • In Österreich
  • Länderverzeichnis
  • Für 7 Tage
  • Wassertemperatur
  • Satellitenkarten
  • Wetterkarte
  • News
  • Widgets
  • user-avatar
    Anmelden

    Stündliche Wetter Pogrebische

    Heute, 19 Februar, Dienstag

    Zeit Temperatur Niederschläge Wind Luftdruck Luftfeuchtigkeit
    00:00 +1°C° 0 mm 1 m/S 748 mmHg 83%
    01:00 -1°C° 0 mm 2 m/S 748 mmHg 84%
    02:00 -1°C° 0 mm 2 m/S 748 mmHg 85%
    03:00 -2°C° 0 mm 2 m/S 747 mmHg 85%
    04:00 -2°C° 0 mm 2 m/S 747 mmHg 85%
    05:00 -2°C° 0 mm 2 m/S 747 mmHg 85%
    06:00 -2°C° 0 mm 3 m/S 747 mmHg 84%
    07:00 -2°C° 0 mm 3 m/S 747 mmHg 82%
    08:00 -2°C° 0 mm 4 m/S 747 mmHg 79%
    09:00 -1°C° 0 mm 4 m/S 747 mmHg 73%
    10:00 0°C° 0 mm 4 m/S 747 mmHg 68%
    11:00 +1°C° 0 mm 5 m/S 746 mmHg 63%
    12:00 +2°C° 0 mm 5 m/S 746 mmHg 63%
    13:00 +3°C° 0 mm 5 m/S 746 mmHg 64%
    14:00 +5°C° 0 mm 5 m/S 745 mmHg 64%
    15:00 +3°C° 0 mm 5 m/S 745 mmHg 67%
    16:00 +3°C° 0 mm 5 m/S 744 mmHg 70%
    17:00 +3°C° 0 mm 4 m/S 744 mmHg 74%
    18:00 +1°C° 0 mm 5 m/S 743 mmHg 76%
    19:00 +1°C° 0 mm 5 m/S 743 mmHg 78%
    20:00 0°C° 0 mm 5 m/S 743 mmHg 81%
    21:00 0°C° 0 mm 5 m/S 742 mmHg 82%
    22:00 0°C° 0 mm 5 m/S 742 mmHg 84%
    23:00 0°C° 0 mm 5 m/S 742 mmHg 86%

    Morgen, 20 Februar, Mittwoch

    Zeit Temperatur Niederschläge Wind Luftdruck Luftfeuchtigkeit
    00:00 0°C° 0 mm 5 m/S 741 mmHg 88%
    01:00 -1°C° 0 mm 5 m/S 741 mmHg 90%
    02:00 -1°C° 0 mm 5 m/S 741 mmHg 93%
    03:00 -1°C° 0 mm 4 m/S 740 mmHg 93%
    04:00 -1°C° 0 mm 4 m/S 740 mmHg 94%
    05:00 -1°C° 0 mm 4 m/S 740 mmHg 95%
    06:00 -1°C° 0 mm 4 m/S 739 mmHg 94%
    07:00 -1°C° 0 mm 4 m/S 739 mmHg 92%
    08:00 0°C° 0 mm 3 m/S 739 mmHg 91%
    09:00 0°C° 0.1 mm 4 m/S 739 mmHg 87%
    10:00 +3°C° 0.1 mm 4 m/S 740 mmHg 84%
    11:00 +3°C° 0.1 mm 5 m/S 740 mmHg 81%
    12:00 +3°C° 0.2 mm 5 m/S 740 mmHg 80%
    13:00 +5°C° 0.2 mm 5 m/S 740 mmHg 79%
    14:00 +4°C° 0.2 mm 6 m/S 740 mmHg 78%
    15:00 +3°C° 0 mm 5 m/S 740 mmHg 78%
    16:00 +3°C° 0 mm 5 m/S 740 mmHg 79%
    17:00 +3°C° 0 mm 5 m/S 740 mmHg 79%
    18:00 +3°C° 0 mm 4 m/S 740 mmHg 81%
    19:00 +1°C° 0 mm 4 m/S 741 mmHg 82%
    20:00 +1°C° 0 mm 3 m/S 741 mmHg 83%
    21:00 +1°C° 0 mm 4 m/S 741 mmHg 82%
    22:00 +1°C° 0 mm 5 m/S 741 mmHg 81%
    23:00 +1°C° 0 mm 5 m/S 741 mmHg 80%

    übermorgen, 21 Februar, Donnerstag

    Zeit Temperatur Niederschläge Wind Luftdruck Luftfeuchtigkeit
    00:00 +1°C° 0 mm 5 m/S 741 mmHg 80%
    01:00 +1°C° 0 mm 6 m/S 741 mmHg 80%
    02:00 +1°C° 0 mm 6 m/S 741 mmHg 80%
    03:00 -1°C° 0 mm 6 m/S 741 mmHg 82%
    04:00 -1°C° 0 mm 6 m/S 741 mmHg 84%
    05:00 -2°C° 0 mm 6 m/S 741 mmHg 85%
    06:00 -2°C° 0 mm 6 m/S 741 mmHg 83%
    07:00 -1°C° 0 mm 7 m/S 741 mmHg 81%
    08:00 -1°C° 0 mm 7 m/S 741 mmHg 79%
    09:00 -1°C° 0 mm 8 m/S 742 mmHg 72%
    10:00 0°C° 0 mm 8 m/S 742 mmHg 65%
    11:00 0°C° 0 mm 9 m/S 742 mmHg 58%
    12:00 +1°C° 0 mm 9 m/S 742 mmHg 55%
    13:00 +1°C° 0 mm 9 m/S 742 mmHg 52%
    14:00 +1°C° 0 mm 9 m/S 741 mmHg 49%
    15:00 +1°C° 0 mm 8 m/S 741 mmHg 53%
    16:00 +2°C° 0 mm 7 m/S 741 mmHg 57%
    17:00 +1°C° 0 mm 6 m/S 741 mmHg 61%
    18:00 +1°C° 0 mm 5 m/S 742 mmHg 64%
    19:00 0°C° 0 mm 4 m/S 742 mmHg 67%
    20:00 0°C° 0 mm 3 m/S 742 mmHg 69%
    21:00 0°C° 0 mm 3 m/S 742 mmHg 68%
    22:00 +1°C° 0 mm 2 m/S 742 mmHg 66%
    23:00 +1°C° 0 mm 2 m/S 742 mmHg 65%

    22 Februar, Freitag

    Zeit Temperatur Niederschläge Wind Luftdruck Luftfeuchtigkeit
    00:00 -1°C° 0.1 mm 2 m/S 742 mmHg 66%
    01:00 -1°C° 0.1 mm 2 m/S 742 mmHg 66%
    02:00 0°C° 0.1 mm 1 m/S 742 mmHg 67%
    03:00 -2°C° 0 mm 2 m/S 742 mmHg 66%
    04:00 -2°C° 0 mm 2 m/S 742 mmHg 66%
    05:00 -2°C° 0 mm 3 m/S 742 mmHg 66%
    06:00 -4°C° 0.1 mm 4 m/S 742 mmHg 67%
    07:00 -4°C° 0.1 mm 4 m/S 743 mmHg 68%
    08:00 -6°C° 0.1 mm 5 m/S 743 mmHg 69%
    09:00 -6°C° 0.1 mm 6 m/S 744 mmHg 66%
    10:00 -6°C° 0.1 mm 6 m/S 744 mmHg 62%
    11:00 -7°C° 0.1 mm 7 m/S 745 mmHg 58%
    12:00 -8°C° 0 mm 7 m/S 746 mmHg 55%
    13:00 -8°C° 0 mm 8 m/S 746 mmHg 51%
    14:00 -8°C° 0 mm 8 m/S 747 mmHg 47%
    15:00 -8°C° 0 mm 8 m/S 747 mmHg 46%
    16:00 -9°C° 0 mm 7 m/S 748 mmHg 44%
    17:00 -9°C° 0 mm 7 m/S 748 mmHg 43%
    18:00 -9°C° 0 mm 7 m/S 749 mmHg 44%
    19:00 -9°C° 0 mm 7 m/S 749 mmHg 44%
    20:00 -11°C° 0 mm 7 m/S 749 mmHg 45%
    21:00 -11°C° 0 mm 7 m/S 750 mmHg 47%
    22:00 -11°C° 0 mm 7 m/S 750 mmHg 49%
    23:00 -11°C° 0 mm 7 m/S 750 mmHg 51%

    23 Februar, Samstag

    Zeit Temperatur Niederschläge Wind Luftdruck Luftfeuchtigkeit
    00:00 -10°C° 0 mm 6 m/S 750 mmHg 52%
    01:00 -10°C° 0 mm 6 m/S 750 mmHg 52%
    02:00 -10°C° 0 mm 6 m/S 750 mmHg 53%
    03:00 -10°C° 0.1 mm 6 m/S 750 mmHg 54%
    04:00 -10°C° 0.1 mm 6 m/S 750 mmHg 54%
    05:00 -11°C° 0.1 mm 7 m/S 750 mmHg 55%
    06:00 -12°C° 0 mm 7 m/S 751 mmHg 54%
    07:00 -11°C° 0 mm 6 m/S 751 mmHg 53%
    08:00 -11°C° 0 mm 6 m/S 752 mmHg 52%
    09:00 -11°C° 0 mm 6 m/S 752 mmHg 51%
    10:00 -11°C° 0 mm 6 m/S 752 mmHg 50%
    11:00 -10°C° 0 mm 6 m/S 752 mmHg 49%
    12:00 -10°C° 0 mm 6 m/S 752 mmHg 48%
    13:00 -9°C° 0 mm 6 m/S 752 mmHg 47%
    14:00 -9°C° 0 mm 6 m/S 752 mmHg 45%
    15:00 -9°C° 0 mm 6 m/S 752 mmHg 47%
    16:00 -9°C° 0 mm 6 m/S 752 mmHg 48%
    17:00 -9°C° 0 mm 6 m/S 752 mmHg 49%
    18:00 -8°C° 0 mm 5 m/S 752 mmHg 51%
    19:00 -10°C° 0 mm 5 m/S 752 mmHg 52%
    20:00 -9°C° 0 mm 4 m/S 752 mmHg 53%
    21:00 -9°C° 0 mm 4 m/S 752 mmHg 55%
    22:00 -9°C° 0 mm 4 m/S 752 mmHg 57%
    23:00 -10°C° 0 mm 4 m/S 752 mmHg 60%

    24 Februar, Sonntag

    Zeit Temperatur Niederschläge Wind Luftdruck Luftfeuchtigkeit
    00:00 -10°C° 0 mm 4 m/S 752 mmHg 62%
    01:00 -10°C° 0 mm 4 m/S 753 mmHg 65%
    02:00 -10°C° 0 mm 4 m/S 753 mmHg 67%
    03:00 -10°C° 0 mm 4 m/S 753 mmHg 68%
    04:00 -11°C° 0 mm 4 m/S 753 mmHg 69%
    05:00 -11°C° 0 mm 4 m/S 753 mmHg 70%
    06:00 -11°C° 0 mm 4 m/S 753 mmHg 70%
    07:00 -11°C° 0 mm 4 m/S 753 mmHg 70%
    08:00 -12°C° 0 mm 5 m/S 754 mmHg 70%
    09:00 -11°C° 0 mm 5 m/S 754 mmHg 67%
    10:00 -11°C° 0 mm 5 m/S 754 mmHg 63%
    11:00 -10°C° 0 mm 5 m/S 754 mmHg 59%
    12:00 -8°C° 0 mm 5 m/S 754 mmHg 56%
    13:00 -8°C° 0 mm 5 m/S 754 mmHg 52%
    14:00 -7°C° 0 mm 5 m/S 754 mmHg 49%
    15:00 -7°C° 0 mm 5 m/S 754 mmHg 48%
    16:00 -7°C° 0 mm 5 m/S 754 mmHg 46%
    17:00 -7°C° 0 mm 5 m/S 754 mmHg 45%
    18:00 -7°C° 0 mm 4 m/S 754 mmHg 45%
    19:00 -8°C° 0 mm 4 m/S 754 mmHg 45%
    20:00 -8°C° 0 mm 4 m/S 755 mmHg 46%
    21:00 -8°C° 0 mm 3 m/S 755 mmHg 48%
    22:00 -8°C° 0 mm 3 m/S 755 mmHg 50%
    23:00 -8°C° 0 mm 3 m/S 755 mmHg 52%
    Mehr zeigen